This is the latest recevied weather packets stored in our database for station/object DK8DX-13. If no packets are shown the sender has not sent any weather packets the latest 1 day(s).
| Time | Temp. | Humidity | Pressure | Rain* | Wind** | Luminosity | Snow |
|---|---|---|---|---|---|---|---|
| 1778066927 | 8.89° C | 94% | 1008.1 hPa | 0.51 mm | - | - | - |
| 1778066653 | 8.89° C | 94% | 1008.2 hPa | 0.51 mm | - | - | - |
| 1778066127 | 8.33° C | 94% | 1008.2 hPa | 0.25 mm | - | - | - |
| 1778065837 | 8.33° C | 94% | 1008.2 hPa | 0.51 mm | - | - | - |
| 1778065567 | 8.33° C | 94% | 1008.2 hPa | 0.51 mm | - | - | - |
| 1778065297 | 8.33° C | 94% | 1008.2 hPa | 0.51 mm | - | - | - |
| 1778065007 | 8.33° C | 94% | 1008.2 hPa | 0.76 mm | - | - | - |
| 1778064762 | 8.33° C | 94% | 1008.3 hPa | 0.76 mm | - | - | - |
| 1778064232 | 7.78° C | 94% | 1008.2 hPa | 1.02 mm | - | - | - |
| 1778063947 | 7.78° C | 94% | 1008.1 hPa | 1.02 mm | - | - | - |
| 1778063657 | 7.78° C | 94% | 1008.2 hPa | 1.02 mm | - | - | - |
| 1778063382 | 8.33° C | 94% | 1008.1 hPa | 1.02 mm | - | - | - |
| 1778063117 | 8.33° C | 94% | 1007.9 hPa | 1.02 mm | - | - | - |
| 1778062862 | 8.33° C | 94% | 1007.9 hPa | 1.02 mm | - | - | - |
| 1778062602 | 8.33° C | 94% | 1007.8 hPa | 1.02 mm | - | - | - |
| 1778062332 | 7.78° C | 94% | 1007.8 hPa | 1.27 mm | - | - | - |
| 1778062037 | 7.78° C | 94% | 1007.8 hPa | 1.52 mm | - | - | - |
| 1778061757 | 7.78° C | 94% | 1007.9 hPa | 1.78 mm | - | - | - |
| 1778061472 | 7.78° C | 94% | 1007.7 hPa | 2.03 mm | - | - | - |
| 1778061212 | 7.22° C | 94% | 1007.9 hPa | 1.78 mm | - | - | - |
| 1778060937 | 7.22° C | 94% | 1007.8 hPa | 1.02 mm | - | - | - |
| 1778060673 | 7.22° C | 94% | 1007.9 hPa | 0.76 mm | - | - | - |
| 1778060407 | 7.22° C | 94% | 1007.8 hPa | 0.51 mm | - | - | - |
| 1778060122 | 7.22° C | 94% | 1007.8 hPa | 0.51 mm | - | - | - |
| 1778059833 | 7.22° C | 94% | 1007.8 hPa | 0.51 mm | - | - | - |
* Rain latest hour (hover to see other rain measurements)
** Current wind speed in m/s (hover to see current wind gust speed)